Orangeburg, SC

4:16 PM EDT on April 21, 2018 (GMT -0400)
Orangeburg Municipal

Weather History for KOGB - February, 2014

Change the Weather History Date:

Sunday, February 23, 2014

  Actual Average Record
Temperature  
Mean Temperature 53 °F 51 °F  
Max Temperature 65 °F 63 °F 82 °F (2012)
Min Temperature 40 °F 40 °F 20 °F (1963)
Degree Days  
Heating Degree Days 12 14  
Month to date heating degree days 300 369  
Since 1 July heating degree days 1797 1866  
Cooling Degree Days 0 0  
Month to date cooling degree days 6 0  
Year to date cooling degree days 6 1  
Growing Degree Days 2 (Base 50)    
Moisture  
Dew Point 44 °F    
Average Humidity 73    
Maximum Humidity 92    
Minimum Humidity 44    
Precipitation  
Precipitation 0.00 in 0.15 in 1.86 in (1992)
Month to date precipitation 3.35 2.83  
Year to date precipitation 5.51 6.81  
Sea Level Pressure  
Sea Level Pressure 30.04 in    
Wind  
Wind Speed 3 mph (SW)    
Max Wind Speed 10 mph    
Max Gust Speed 13 mph    
Visibility 10 miles    
Events      
T = Trace of Precipitation, MM = Missing Value Source: NWS Daily Summary

Daily Weather History Graph

Daily Weather History Graph

Search for Another Location

Airport or City:

Astronomy

Feb. 23, 2014 Rise Set
Actual Time 6:58 AM EST 6:15 PM EST
Civil Twilight 6:33 AM EST 6:40 PM EST
Nautical Twilight 6:04 AM EST 7:09 PM EST
Astronomical Twilight 5:36 AM EST 7:38 PM EST
Moon 1:47 AM EST (2/23) 12:25 PM EST (2/23)
Length of Visible Light 12h 06m
Length of Day
11h 16m
Last Quarter, 39% of the Moon is Illuminated
Feb 23
Last Quarter
Mar 1
New
Mar 8
First Quarter
Mar 16
Full
Mar 23
Last Quarter

Hourly Weather History & Observations

Time (EST) Temp. Dew Point Humidity Pressure Visibility Wind Dir Wind Speed Gust Speed Precip Events Conditions
12:53 AM 45.0 °F 39.9 °F 82% 30.12 in 10.0 mi Calm Calm - N/A   Clear
1:53 AM 44.1 °F 39.0 °F 82% 30.09 in 10.0 mi Calm Calm - N/A   Clear
2:53 AM 42.1 °F 39.0 °F 89% 30.08 in 10.0 mi Calm Calm - N/A   Clear
3:53 AM 41.0 °F 37.9 °F 89% 30.08 in 10.0 mi Calm Calm - N/A   Clear
4:53 AM 39.9 °F 37.9 °F 93% 30.09 in 10.0 mi Calm Calm - N/A   Clear
5:53 AM 39.9 °F 37.9 °F 93% 30.09 in 10.0 mi Calm Calm - N/A   Clear
6:53 AM 42.1 °F 39.9 °F 92% 30.10 in 10.0 mi Calm Calm - N/A   Clear
7:53 AM 45.0 °F 41.0 °F 86% 30.10 in 10.0 mi Calm Calm - N/A   Clear
8:53 AM 52.0 °F 43.0 °F 71% 30.10 in 10.0 mi Calm Calm - N/A   Clear
9:53 AM 57.0 °F 44.1 °F 62% 30.11 in 10.0 mi Calm Calm - N/A   Clear
10:53 AM 60.1 °F 45.0 °F 57% 30.11 in 10.0 mi SSW 5.8 mph - N/A   Clear
11:53 AM 62.1 °F 45.0 °F 53% 30.10 in 10.0 mi WSW 9.2 mph - N/A   Partly Cloudy
12:53 PM 63.0 °F 42.1 °F 46% 30.07 in 10.0 mi WSW 6.9 mph - N/A   Scattered Clouds
1:53 PM 64.0 °F 43.0 °F 46% 30.03 in 10.0 mi SSW 6.9 mph - N/A   Clear
2:53 PM 64.0 °F 44.1 °F 48% 30.01 in 10.0 mi SSW 6.9 mph - N/A   Clear
3:53 PM 64.0 °F 46.0 °F 52% 30.00 in 10.0 mi SW 6.9 mph - N/A   Clear
4:53 PM 63.0 °F 46.9 °F 56% 29.98 in 10.0 mi WSW 3.5 mph - N/A   Clear
5:53 PM 62.1 °F 46.9 °F 58% 29.98 in 10.0 mi Calm Calm - N/A   Clear
6:53 PM 57.0 °F 48.9 °F 74% 29.97 in 10.0 mi South 3.5 mph - N/A   Clear
7:53 PM 57.9 °F 50.0 °F 75% 29.97 in 10.0 mi SSW 4.6 mph - N/A   Clear
8:53 PM 57.0 °F 51.1 °F 81% 29.96 in 10.0 mi SW 5.8 mph - N/A   Clear
9:53 PM 55.0 °F 51.1 °F 86% 29.97 in 10.0 mi WSW 4.6 mph - N/A   Clear
10:53 PM 55.0 °F 52.0 °F 89% 29.96 in 10.0 mi SW 5.8 mph - N/A   Clear
11:53 PM 55.9 °F 52.0 °F 87% 29.95 in 10.0 mi SW 6.9 mph - N/A   Clear